Regional Weather Roundup
Issued by NWS

Home | Current Version | Previous Version | Text Only | Print | Product List | Glossary On
Versions: 1 2 3 4 5 6 7 8 9 10 11 12 13 14 15 16 17 18 19 20 21 22 23 24 25 26 27 28 29 30 31 32 33 34 35 36 37 38 39 40 41 42 43 44 45 46 47 48 49 50
000
ASUS45 KBOI 050410
RWRID

IDAHO REGIONAL WEATHER ROUNDUP
NATIONAL WEATHER SERVICE BOISE ID
1000 PM MDT FRI SEP 04 2015

NOTE: "FAIR" INDICATES FEW OR NO CLOUDS BELOW 12000 FEET
WITH NO SIGNIFICANT WEATHER AND/OR OBSTRUCTIONS TO VISIBILITY

IDZ012-014-050500-
SOUTHWEST IDAHO


CITY           SKY/WX    TMP DP  RH WIND       PRES   REMARKS
BOISE          CLOUDY    53  44  71 N17       29.86R
CALDWELL       CLOUDY    54  37  54 N10       29.85F
MOUNTAIN HOME  CLOUDY    57  40  52 NW25G35   29.82R
$$

IDZ016-017-050500-
SOUTHCENTRAL IDAHO


CITY           SKY/WX    TMP DP  RH WIND       PRES   REMARKS
BURLEY         PTCLDY    59  45  59 W9        29.72R
JEROME         MOCLDY    53  39  59 W20G31    29.78R
TWIN FALLS     CLOUDY    56  36  47 W35G45    29.79R HAZE
$$

IDZ019>023-050500-
SOUTHEAST IDAHO


CITY           SKY/WX    TMP DP  RH WIND       PRES   REMARKS
IDAHO FALLS    CLOUDY    65  42  43 SE9       29.76F
POCATELLO      CLEAR     65  44  46 E10       29.69F
REXBURG        LGT RAIN  60  48  64 CALM      29.80R
$$

IDZ006-010-011-018-031-032-050500-
CENTRAL IDAHO MOUNTAINS


CITY           SKY/WX    TMP DP  RH WIND       PRES   REMARKS
MCCALL         CLOUDY    48  38  68 VRB6      29.85R
HAILEY         PTCLDY    61  39  44 NW5       29.80S
STANLEY          N/A     51  36  56 SE8G18    29.86R
SALMON         CLOUDY    48  46  93 SW5       29.85R
CHALLIS        CLOUDY    51  46  83 CALM      29.85R
$$

IDZ002-004-006-007-026-050500-
NORTHERN IDAHO


CITY           SKY/WX    TMP DP  RH WIND       PRES   REMARKS
LEWISTON       CLOUDY    65  35  33 NW5       29.82R
LOWELL           N/A     55  54  96 CALM      29.81R
COEUR D`ALENE  CLOUDY    61  37  41 N17G25    29.83R
MULLAN PASS    LGT RAIN  44  37  76 SE10G21   29.93R
$$



USA.gov is the U.S. government's official web portal to all federal, state and local government web resources and services.